Location: Chuathbaluk
(61.5726°N, 159.2454°W)
Time: 11:34:44
(UTC+00:00)

FO-29 - Visible Passes

Search period start: 16 January 2021 00:00
Search period end: 26 January 2021 00:00
Orbit: 800 x 1321 km, 98.6° (Epoch: 15 January)

Date Brightness Start Highest point End Pass type
(mag) Time Alt. Az. Time Alt. Az. Time Alt. Az.
16 Jan 11.5 03:26:07 10° NNE 03:29:21 14° N 03:32:26 10° NNW visible
16 Jan 11.3 05:11:14 17° NNE 05:12:11 18° NNE 05:16:19 10° NNW visible
16 Jan 11.0 06:57:42 29° NNE 06:57:42 29° NNE 07:01:34 10° NNW visible
16 Jan 11.4 08:44:11 28° NNW 08:44:11 28° NNW 08:47:00 10° NNW visible
16 Jan 12.0 10:30:40 16° NW 10:30:40 16° NW 10:32:05 10° NNW visible
17 Jan 11.5 04:15:26 11° NE 04:18:16 15° N 04:21:30 10° NNW visible
17 Jan 11.1 06:01:55 23° NNE 06:01:55 23° NNE 06:06:19 10° NNW visible
17 Jan 11.1 07:48:23 31° N 07:48:23 31° N 07:51:45 10° NNW visible
17 Jan 11.7 09:34:52 23° NNW 09:34:52 23° NNW 09:37:06 10° NNW visible
17 Jan 12.3 11:21:21 11° NW 11:21:21 11° NW 11:21:36 10° NW visible
18 Jan 11.5 03:21:23 10° NNE 03:24:25 14° N 03:27:19 10° NNW visible
18 Jan 11.3 05:06:07 16° NE 05:07:15 17° NNE 05:11:10 10° NNW visible
18 Jan 11.0 06:52:36 29° NNE 06:52:36 29° NNE 06:56:27 10° NNW visible
18 Jan 11.3 08:39:05 29° NNW 08:39:05 29° NNW 08:41:54 10° NNW visible
18 Jan 12.0 10:25:33 17° NW 10:25:33 17° NW 10:27:01 10° NNW visible
19 Jan 11.5 04:10:19 10° NE 04:13:20 14° N 04:16:21 10° NNW visible
19 Jan 11.1 05:56:47 22° NNE 05:56:47 22° NNE 06:01:10 10° NNW visible
19 Jan 11.0 07:43:16 31° N 07:43:16 31° N 07:46:38 10° NNW visible
19 Jan 11.6 09:29:45 23° NNW 09:29:45 23° NNW 09:32:00 10° NNW visible
19 Jan 12.2 11:16:13 11° NW 11:16:13 11° NW 11:16:33 10° NW visible
20 Jan 11.5 03:16:37 10° NNE 03:19:28 13° N 03:22:12 10° NNW visible
20 Jan 11.3 05:00:59 16° NE 05:02:18 16° NNE 05:06:01 10° NNW visible
20 Jan 10.9 06:47:28 28° NNE 06:47:28 28° NNE 06:51:19 10° NNW visible
20 Jan 11.2 08:33:57 29° NNW 08:33:57 29° NNW 08:36:48 10° NNW visible
20 Jan 11.9 10:20:25 17° NW 10:20:25 17° NW 10:21:55 10° NNW visible
21 Jan 11.5 04:05:28 10° NE 04:08:23 13° N 04:11:10 10° NNW visible
21 Jan 11.1 05:51:40 21° NNE 05:51:40 21° NNE 05:56:01 10° NNW visible
21 Jan 11.0 07:38:08 31° N 07:38:08 31° N 07:41:30 10° NNW visible
21 Jan 11.6 09:24:37 24° NNW 09:24:37 24° NNW 09:26:53 10° NNW visible
21 Jan 12.2 11:11:05 11° NW 11:11:05 11° NW 11:11:29 10° NW visible
22 Jan 11.5 03:11:52 10° NNE 03:14:31 13° N 03:17:05 10° NNW visible
22 Jan 11.3 04:55:51 14° NE 04:57:22 16° NNE 05:00:50 10° NNW visible
22 Jan 10.9 06:42:20 27° NNE 06:42:20 27° NNE 06:46:10 10° NNW visible
22 Jan 11.2 08:28:48 30° NNW 08:28:48 30° NNW 08:31:40 10° NNW visible
22 Jan 11.9 10:15:17 17° NW 10:15:17 17° NW 10:16:49 10° NNW visible
23 Jan 11.5 04:00:47 10° NNE 04:03:26 13° N 04:05:59 10° NNW visible
23 Jan 11.1 05:46:31 20° NNE 05:46:31 20° NNE 05:50:51 10° NNW visible
23 Jan 10.9 07:32:59 31° N 07:32:59 31° N 07:36:22 10° NNW visible
23 Jan 11.5 09:19:28 24° NNW 09:19:28 24° NNW 09:21:46 10° NNW visible
23 Jan 12.2 11:05:56 12° NW 11:05:56 12° NW 11:06:23 10° NW visible
24 Jan 11.4 03:07:05 10° NNE 03:09:33 13° N 03:11:57 10° NNW visible
24 Jan 11.3 04:50:41 13° NE 04:52:24 15° NNE 04:55:38 10° NNW visible
24 Jan 10.9 06:37:10 27° NNE 06:37:10 27° NNE 06:41:01 10° NNW visible
24 Jan 11.1 08:23:39 30° NNW 08:23:39 30° NNW 08:26:32 10° NNW visible
24 Jan 11.8 10:10:07 18° NW 10:10:07 18° NW 10:11:43 10° NNW visible
25 Jan 11.5 03:56:05 10° NNE 03:58:29 12° N 04:00:47 10° NNW visible
25 Jan 11.1 05:41:21 19° NNE 05:41:31 19° NNE 05:45:40 10° NNW visible
25 Jan 10.8 07:27:49 31° N 07:27:49 31° N 07:31:13 10° NNW visible
25 Jan 11.4 09:14:18 25° NNW 09:14:18 25° NNW 09:16:39 10° NNW visible
25 Jan 12.1 11:00:46 12° NW 11:00:46 12° NW 11:01:19 10° NW visible
